[[{"header":{"parameterUnit":"m.s-1","parameterCategory":1,"la1":30.2991,"la2":30.254,"lo1":-89.0895,"lo2":-89.0444,"dy":0.0017,"dx":0.0017,"nx":28,"ny":28,"refTime":"2023-10-22T09:00:00:Z","depth":0,"parameterNumber":2,"parameterNumberName":"U-component_of_WINDS"},"data":[0,0,0,0,0,0,0,0,0,0,0,0,0,0,0,0,0,0,0,0,0,0,0,0,0,0,0,0,0,0,0,0,0,0,0,0,0,0,0,0,0,0,0,0,0,0,0,0,0,0,0,0,0,0,0,0,0,0,-3.8617,-3.8617,0,-3.8629,-3.8629,-3.863,-3.8532,-3.853,-3.8527,-3.8524,-3.8538,-3.8541,-3.8543,0,0,0,0,0,0,0,0,0,0,0,0,0,-3.8513,-3.8515,-3.8617,-3.8617,-3.8617,-3.8629,-3.863,-3.863,-3.8533,-3.853,-3.8526,-3.8523,-3.8537,-3.854,-3.8544,0,0,0,0,0,0,0,0,0,0,0,0,0,-3.8545,-3.8516,-3.8617,-3.857,-3.8566,-3.8629,-3.863,-3.863,-3.8534,-3.853,-3.8525,-3.8522,-3.8536,-3.854,-3.8544,-3.8652,0,0,-3.8557,-3.8559,0,0,0,0,0,0,0,0,-3.8543,-3.8549,-3.8577,-3.8574,-3.8569,-3.8575,-3.8598,-3.8637,-3.8535,-3.8546,-3.8524,-3.852,-3.8554,-3.8556,-3.8567,-3.8653,-3.8654,-3.8558,-3.856,-3.8562,-3.8564,0,0,0,0,0,0,0,-3.8541,-3.8548,-3.8622,-3.8578,-3.8573,-3.855,-3.855,-3.8605,-3.8573,-3.8545,-3.8538,-3.8541,-3.8551,-3.8564,-3.8567,-3.8654,-3.8558,-3.8562,-3.8564,-3.8566,-3.8833,-3.8837,0,0,0,0,0,0,-3.8545,-3.8547,-3.8621,-3.8622,-3.8546,-3.8555,-3.8555,-3.8577,-3.8572,-3.8567,-3.8544,-3.8536,-3.8558,-3.8562,-3.8567,-3.8695,-3.8562,-3.8566,-3.8569,-3.8828,-3.8834,-3.8839,0,0,0,0,0,0,-3.8543,-3.8553,-3.8621,-3.8583,-3.859,-3.8561,-3.8587,-3.858,-3.8592,-3.8571,-3.8565,-3.8563,-3.8555,-3.8561,-3.8633,-3.8694,-3.8568,-3.8572,-3.8823,-3.883,-3.8836,-3.8952,0,0,0,0,0,0,-3.854,-3.8552,-3.8592,-3.8584,-3.8592,-3.8686,-3.8591,-3.8583,-3.86,-3.859,-3.8587,-3.8583,-3.8552,-3.8627,-3.8637,-3.8698,-3.8576,-3.8817,-3.8826,-3.8834,-3.8942,-3.8962,-3.8978,0,0,0,0,0,-3.8537,-3.8624,-3.8595,-3.8604,-3.8641,-3.8689,-3.8694,-3.8657,-3.8605,-3.8646,-3.8633,-3.8583,-3.8686,-3.8635,-3.8646,-3.8709,-3.8813,-3.8824,-3.8833,-3.8934,-3.8958,-3.8978,0,0,0,0,0,0,-3.8639,-3.8621,-3.8589,-3.8675,-3.8685,-3.8673,-3.8722,-3.8682,-3.8706,-3.8695,-3.8649,-3.8649,-3.8729,-3.8726,-3.8669,-3.8815,-3.8741,-3.8754,-3.8814,-3.8836,-3.8854,-3.8853,-3.8579,0,0,0,0,0,-3.8671,-3.8711,-3.8694,-3.8772,-3.8779,-3.8751,-3.877,-3.8741,-3.8749,-3.8752,-3.8744,-3.8754,-3.8789,-3.8812,-3.8843,-3.8942,-3.8941,-3.8991,-3.9009,-3.9024,-3.9035,-3.909,-3.9113,-3.8872,-3.8872,-3.8872,0,0,-3.8739,-3.8734,-3.8762,-3.8793,-3.8796,-3.884,-3.8754,-3.8803,-3.8835,-3.8759,-3.8826,-3.8822,-3.883,-3.8917,-3.8954,-3.8917,-3.9102,-3.9037,-3.9049,-3.9052,-3.9103,-3.9126,-3.9146,-3.8879,-3.8877,-3.8876,0,0,-3.8884,-3.8884,-3.895,-3.8956,-3.8963,-3.8945,-3.8961,-3.8956,-3.895,-3.9017,-3.8962,-3.9001,-3.9061,-3.907,-3.9083,-3.9236,-3.9192,-3.9248,-3.9341,-3.9395,-3.9414,-3.9431,-3.9487,-3.9508,-3.9259,-3.926,-3.926,0,-3.8966,-3.9029,-3.8989,-3.9043,-3.9059,-3.8994,-3.9061,-3.907,-3.9087,-3.91,-3.9058,-3.9135,-3.9135,-3.9224,-3.9263,-3.9274,-3.9293,-3.9247,-3.9415,-3.9431,-3.9446,-3.9499,-3.952,-3.9267,-3.9266,-3.9265,-3.9264,0,-3.9131,-3.9176,-3.9229,-3.9248,-3.9271,-3.9331,-3.9302,-3.933,-3.93,-3.9287,-3.9358,-3.9357,-3.9388,-3.9407,-3.9378,-3.9494,-3.947,-3.9423,-3.9347,-3.9476,-3.9526,-3.9546,-3.9276,-3.9274,-3.9272,-3.927,0,0,-3.9337,-3.9337,-3.9357,-3.9366,-3.9371,-3.9406,-3.9465,-3.9496,-3.9521,-3.9537,-3.9586,-3.9641,-3.9598,-3.9612,-3.9584,-3.9632,-3.9757,-3.9578,-3.9578,-3.9612,-3.9886,-3.9922,-3.9946,-3.9728,-3.9732,-3.9735,-3.9886,0,-3.948,-3.958,-3.9548,-3.9649,-3.9692,-3.9633,-3.9685,-3.9695,-3.9685,-3.972,-3.9709,-3.9749,-3.9688,-3.9697,-3.9742,-3.9732,-3.9811,-3.9721,-3.9775,-3.9777,-3.9774,-3.9972,-4.0009,-4.0152,-3.9905,-3.9908,-3.991,0,-3.9658,-3.9682,-3.9789,-3.979,-3.9806,-3.9853,-3.9881,-3.9915,-3.9926,-3.9916,-3.9935,-3.9898,-3.9958,-3.9884,-3.9967,-3.9907,-3.9927,-3.9926,-3.9931,-3.9934,-3.9851,-3.9981,-4.0196,-4.0218,-3.994,-3.9937,-3.9935,0,-3.98,-3.9858,-3.993,-3.994,-3.9943,-3.9978,-3.9981,-3.9988,-4.001,-4.0034,-4.0048,-4.008,-4.0097,-4.0123,-4.0097,-4.0045,-4.0185,-4.0108,-4.018,-4.0181,-4.0211,-4.0209,-4.0433,-4.0225,-4.0224,-4.0224,-4.0223,0,-3.9962,-4.0029,-3.9994,-4.0038,-4.0114,-4.0077,-4.0153,-4.0149,-4.0157,-4.0201,-4.0152,-4.0195,-4.0157,-4.0197,-4.0177,-4.0251,-4.0259,-4.0253,-4.0247,-4.0257,-4.0258,-4.027,-4.0259,-4.0229,-4.0228,-4.0227,-4.0226,0,-4.0131,-4.011,-4.0185,-4.0183,-4.0184,-4.024,-4.0238,-4.028,-4.0268,-4.0325,-4.0336,-4.0317,-4.0362,-4.0339,-4.0385,-4.0372,-4.0467,-4.0447,-4.0463,-4.0458,-4.0531,-4.0525,-4.077,-4.0801,-4.0573,-4.0575,-4.0577,0,-4.0236,-4.0287,-4.0291,-4.0317,-4.0324,-4.0366,-4.0389,-4.0356,-4.0382,-4.0401,-4.0441,-4.0482,-4.0513,-4.0587,-4.0579,-4.0615,-4.0596,-4.0679,-4.0601,-4.0611,-4.0598,-4.0596,-4.0601,-4.0695,-4.0698,-4.07,-4.0701,0,-4.0424,-4.0412,-4.0446,-4.0479,-4.0507,-4.0531,-4.055,-4.0575,-4.0543,-4.0575,-4.0621,-4.0645,-4.0693,-4.0735,-4.0767,-4.0771,-4.0733,-4.0727,-4.0745,-4.0756,-4.0764,-4.0762,-4.0507,-4.0721,-4.0719,-4.0717,-4.0716,-4.0716,-4.0565,-4.0609,-4.0619,-4.066,-4.0672,-4.0692,-4.0732,-4.0726,-4.0764,-4.08,-4.078,-4.0834,-4.0847,-4.0886,-4.0897,-4.0939,-4.0906,-4.0933,-4.094,-4.0947,-4.0957,-4.0758,-4.0945,-4.0944,-4.0944,-4.0943,-4.0943,0,-4.0752,-4.0756,-4.0794,-4.0824,-4.0857,-4.0818,-4.0839,-4.087,-4.0918,-4.0933,-4.0966,-4.102,-4.1061,-4.1057,-4.1096,-4.1131,-4.1114,-4.1142,-4.1139,-4.1141,-4.0984,-4.0964,-4.1155,-4.1155,-4.1155,-4.1155,-4.1155,-4.1155,-4.0852,-4.0925,-4.0915,-4.0994,-4.0999,-4.1051,-4.1067,-4.1086,-4.1099,-4.1162,-4.1196,-4.1194,-4.1203,-4.1242,-4.1279,-4.1277,-4.1294,-4.1329,-4.132,-4.1173,-4.1152,-4.1132,-4.1113,-4.1332,-4.1333,-4.1474,-4.1475,-4.1476]},{"header":{"parameterUnit":"m.s-1","parameterCategory":1,"la1":30.2991,"la2":30.254,"lo1":-89.0895,"lo2":-89.0444,"dy":0.0017,"dx":0.0017,"nx":28,"ny":28,"refTime":"2023-10-22T09:00:00:Z","depth":0,"parameterNumber":3,"parameterNumberName":"V-component_of_WINDS"},"data":[0,0,0,0,0,0,0,0,0,0,0,0,0,0,0,0,0,0,0,0,0,0,0,0,0,0,0,0,0,0,0,0,0,0,0,0,0,0,0,0,0,0,0,0,0,0,0,0,0,0,0,0,0,0,0,0,0,0,1.7727,1.7725,0,1.7517,1.7515,1.7512,1.7354,1.7352,1.7351,1.7349,1.7127,1.7122,1.7118,0,0,0,0,0,0,0,0,0,0,0,0,0,1.7985,1.7981,1.7727,1.7724,1.7722,1.7518,1.7515,1.7512,1.7354,1.7352,1.735,1.7349,1.7128,1.7123,1.7117,0,0,0,0,0,0,0,0,0,0,0,0,0,1.7834,1.7979,1.7727,1.7619,1.7607,1.7518,1.7515,1.7511,1.7354,1.7352,1.735,1.7348,1.713,1.7123,1.7117,1.7117,0,0,1.7096,1.7093,0,0,0,0,0,0,0,0,1.7842,1.7824,1.7637,1.7626,1.7613,1.746,1.7524,1.7379,1.7355,1.745,1.7349,1.7347,1.7239,1.7223,1.7188,1.7107,1.7097,1.7095,1.7091,1.7088,1.7086,0,0,0,0,0,0,0,1.7853,1.7832,1.7644,1.7635,1.762,1.7578,1.7554,1.7495,1.7358,1.7441,1.7429,1.7407,1.7231,1.7195,1.7181,1.7094,1.7095,1.7089,1.7085,1.7082,1.7004,1.7006,0,0,0,0,0,0,1.7881,1.7842,1.765,1.7637,1.7725,1.7575,1.7549,1.7511,1.7359,1.7334,1.7409,1.7401,1.7208,1.719,1.7173,1.7165,1.7088,1.7081,1.7077,1.7002,1.7005,1.7007,0,0,0,0,0,0,1.7888,1.7866,1.7659,1.7736,1.7707,1.7573,1.7532,1.7508,1.7471,1.7335,1.7309,1.7397,1.7205,1.7183,1.7133,1.7155,1.7078,1.7072,1.7,1.7003,1.7006,1.7148,0,0,0,0,0,0,1.7896,1.7869,1.7869,1.7738,1.7704,1.7625,1.7533,1.7505,1.746,1.7447,1.7317,1.7293,1.7202,1.7144,1.7126,1.7144,1.7067,1.6997,1.7001,1.7005,1.7141,1.7156,1.7169,0,0,0,0,0,1.7905,1.7915,1.787,1.7847,1.7701,1.7626,1.7606,1.7503,1.7463,1.7461,1.7374,1.7297,1.7156,1.7141,1.7119,1.7135,1.6995,1.7,1.7005,1.7135,1.7153,1.7168,0,0,0,0,0,0,1.8048,1.7896,1.7844,1.7812,1.7734,1.76,1.7594,1.7526,1.7455,1.7445,1.7318,1.729,1.7255,1.7189,1.7175,1.7128,1.7066,1.7066,1.7172,1.7188,1.7202,1.7218,1.7061,0,0,0,0,0,1.8077,1.8031,1.7899,1.7884,1.7848,1.7729,1.7692,1.762,1.7532,1.7498,1.7406,1.7323,1.726,1.722,1.7154,1.7131,1.7101,1.7132,1.7146,1.7158,1.7159,1.7144,1.7156,1.7022,1.7022,1.7022,0,0,1.8134,1.8045,1.8023,1.791,1.7841,1.7795,1.7701,1.7655,1.762,1.7489,1.7438,1.7369,1.7267,1.7232,1.7212,1.7176,1.719,1.7163,1.7174,1.7169,1.715,1.7163,1.7174,1.7025,1.7025,1.7024,0,0,1.8214,1.8143,1.8123,1.8057,1.7955,1.7876,1.7872,1.7749,1.7699,1.7647,1.7549,1.7503,1.7397,1.7329,1.7281,1.734,1.7267,1.7322,1.7394,1.738,1.7391,1.74,1.7422,1.7431,1.7324,1.7325,1.7325,0,1.8297,1.8226,1.8121,1.8083,1.8036,1.792,1.7899,1.7839,1.772,1.769,1.7653,1.7519,1.7442,1.739,1.7405,1.737,1.736,1.7336,1.7398,1.7406,1.7412,1.7432,1.7441,1.7332,1.7331,1.7331,1.733,0,1.8334,1.8287,1.8282,1.8175,1.8128,1.8098,1.7987,1.7951,1.7885,1.781,1.7758,1.7663,1.7577,1.7559,1.7491,1.7498,1.748,1.7423,1.7357,1.7435,1.7451,1.7457,1.7343,1.734,1.7338,1.7336,0,0,1.8496,1.8334,1.8334,1.8285,1.8166,1.8126,1.8091,1.801,1.7983,1.7905,1.7873,1.7788,1.7735,1.768,1.7605,1.7593,1.7648,1.7537,1.7532,1.7562,1.7651,1.7695,1.7705,1.76,1.7601,1.7601,1.7659,0,1.8558,1.8493,1.8398,1.8363,1.8319,1.821,1.8179,1.8103,1.8032,1.7982,1.7903,1.7845,1.778,1.7747,1.773,1.7645,1.7664,1.7639,1.7567,1.7566,1.7596,1.7713,1.7759,1.7818,1.7665,1.7666,1.7667,0,1.8621,1.8555,1.8517,1.8404,1.8382,1.8357,1.8276,1.823,1.8141,1.8091,1.8033,1.7952,1.7909,1.7851,1.779,1.7776,1.774,1.7694,1.7694,1.7683,1.7621,1.7706,1.7834,1.7844,1.7675,1.7675,1.7674,0,1.8745,1.8645,1.861,1.8571,1.8438,1.8424,1.8367,1.8276,1.8235,1.8164,1.8135,1.8059,1.8018,1.796,1.7861,1.7828,1.7811,1.7745,1.7768,1.777,1.7768,1.7769,1.7893,1.7746,1.7746,1.7746,1.7746,0,1.8824,1.8805,1.8664,1.8643,1.8619,1.851,1.8488,1.8421,1.8342,1.8305,1.8204,1.8171,1.8042,1.7993,1.7915,1.7877,1.7859,1.7816,1.7796,1.7825,1.7831,1.78,1.7793,1.7748,1.7748,1.7747,1.7747,0,1.8957,1.8862,1.8817,1.8697,1.8667,1.8654,1.855,1.8525,1.845,1.8404,1.8387,1.8269,1.8207,1.8103,1.8009,1.7957,1.7934,1.7898,1.7965,1.7952,1.7982,1.7981,1.809,1.8099,1.7947,1.7949,1.795,0,1.9014,1.8998,1.8878,1.8848,1.8797,1.8748,1.8706,1.8599,1.8559,1.8459,1.8445,1.8376,1.8315,1.8221,1.8125,1.8054,1.8016,1.806,1.8005,1.8036,1.8018,1.802,1.8018,1.8072,1.8075,1.8076,1.8078,0,1.9126,1.9081,1.9026,1.8957,1.8911,1.8849,1.8782,1.8763,1.864,1.8601,1.8538,1.8491,1.8398,1.8331,1.8247,1.8186,1.8112,1.8097,1.8098,1.8128,1.8168,1.8147,1.8,1.8094,1.8092,1.8091,1.809,1.809,1.9222,1.9204,1.9118,1.9061,1.9001,1.8942,1.8913,1.8837,1.8784,1.8702,1.8641,1.8583,1.8495,1.8375,1.832,1.8272,1.8238,1.824,1.824,1.8243,1.8255,1.8176,1.8256,1.8255,1.8254,1.8254,1.8253,0,1.9329,1.927,1.9219,1.9132,1.9087,1.9025,1.8949,1.8915,1.8867,1.8793,1.8736,1.8665,1.86,1.8502,1.8429,1.8409,1.8374,1.8394,1.8394,1.8381,1.8288,1.8295,1.8424,1.8424,1.8424,1.8424,1.8424,1.8424,1.938,1.9346,1.9292,1.9227,1.9166,1.9111,1.9074,1.9019,1.8959,1.8886,1.8833,1.877,1.8686,1.8607,1.8545,1.8517,1.8495,1.8526,1.8489,1.8403,1.8388,1.8372,1.8378,1.8523,1.8523,1.8585,1.8586,1.8586]}]]